[[{"header":{"parameterUnit":"m.s-1","parameterCategory":1,"la1":30.2992,"la2":30.254,"lo1":-89.0895,"lo2":-89.0443,"dy":0.0025,"dx":0.0025,"nx":19,"ny":19,"refTime":"2026-04-12T09:00:00:Z","depth":0,"parameterNumber":2,"parameterNumberName":"U-component_of_WINDS"},"data":[0,0,0,-2.0061,-2.0063,-2.0155,-2.0155,-2.0261,-2.0262,0,0,0,0,0,0,0,0,0,0,0,-2.0027,-2.0028,-2.0061,-2.0063,-2.0155,-2.0155,-2.0261,-2.0262,0,0,0,0,0,0,0,0,0,0,0,-2.0027,-2.0028,-2.0028,-2.0063,-2.0155,-2.0155,-2.0261,-2.0195,0,0,0,0,0,0,0,0,0,0,-2.0108,-2.0071,-2.0028,-2.0029,-2.0064,-2.0154,-2.0155,-2.0192,-2.0199,-2.0215,0,-2.0228,0,-2.0247,-2.0269,-2.0269,0,0,0,-2.0067,-2.0065,-2.0096,-2.0029,-2.0064,-2.0154,-2.0114,-2.0196,-2.0204,-2.0224,-2.023,-2.0234,-2.0248,-2.0269,-2.027,-2.0348,-2.0348,0,0,-2.0062,-2.004,-2.009,-2.0101,-2.0087,-2.0111,-2.0117,-2.0201,-2.0205,-2.023,-2.0236,-2.025,-2.027,-2.0271,-2.0347,-2.0348,0,0,0,-2.0044,-2.0037,-2.0065,-2.0096,-2.0114,-2.0114,-2.0121,-2.0202,-2.0213,-2.0238,-2.0251,-2.027,-2.0272,-2.0347,-2.0348,-2.0335,0,0,0,-2.0042,-2.0027,-2.0063,-2.0051,-2.0112,-2.0159,-2.0119,-2.0207,-2.0217,-2.0251,-2.027,-2.0272,-2.0347,-2.0347,-2.0335,-2.0333,0,0,0,-2.0023,-2.0025,-2.0036,-2.0049,-2.0088,-2.0158,-2.0174,-2.021,-2.0225,-2.0269,-2.0273,-2.0347,-2.0347,-2.0335,-2.0333,-2.0347,0,0,0,-1.9998,-2.0023,-2.0035,-2.0069,-2.0087,-2.015,-2.0174,-2.0222,-2.0258,-2.0271,-2.0347,-2.0347,-2.0335,-2.0333,-2.0347,-2.0356,-2.0357,0,0,-2.0018,-2.0025,-2.0046,-2.006,-2.0115,-2.0138,-2.0191,-2.0244,-2.0267,-2.0319,-2.0321,-2.0335,-2.0333,-2.0347,-2.0374,-2.0375,0,0,0,-2.0045,-2.006,-2.008,-2.0114,-2.0155,-2.019,-2.0237,-2.0257,-2.0303,-2.029,-2.0345,-2.0344,-2.0354,-2.0359,-2.036,-2.0369,-2.0349,-2.0349,-2.0349,-2.0042,-2.0072,-2.0109,-2.015,-2.0182,-2.0231,-2.026,-2.0294,-2.0313,-2.0326,-2.0341,-2.0354,-2.0359,-2.036,-2.0369,-2.0348,-2.0348,-2.0348,-2.0348,-2.0074,-2.0101,-2.0127,-2.0173,-2.0203,-2.0242,-2.0289,-2.0302,-2.0342,-2.0345,-2.0354,-2.0354,-2.036,-2.037,-2.0348,-2.0348,-2.0348,-2.0348,-2.0348,-2.0076,-2.0094,-2.0118,-2.017,-2.0207,-2.0246,-2.0284,-2.031,-2.0335,-2.0345,-2.0364,-2.0364,-2.0368,-2.0352,-2.0352,-2.0352,-2.0352,-2.0352,-2.0352,-2.0068,-2.0095,-2.0124,-2.0171,-2.0196,-2.0233,-2.0282,-2.0308,-2.0342,-2.0359,-2.0359,-2.0377,-2.0356,-2.035,-2.0353,-2.0353,-2.0353,-2.0353,-2.0353,-2.0089,-2.0089,-2.0133,-2.0159,-2.0216,-2.025,-2.0284,-2.0333,-2.0358,-2.0376,-2.0392,-2.0372,-2.0381,-2.038,-2.0376,-2.0386,-2.0386,-2.0386,-2.0386,-2.009,-2.0098,-2.0149,-2.0188,-2.023,-2.0264,-2.0313,-2.0352,-2.0391,-2.0408,-2.0411,-2.0407,-2.0405,-2.0415,-2.0413,-2.0409,-2.0428,-2.0428,-2.0428,-2.0105,-2.0118,-2.0155,-2.0194,-2.0241,-2.028,-2.0327,-2.037,-2.0414,-2.043,-2.0422,-2.042,-2.0414,-2.0411,-2.0425,-2.0423,-2.0416,0,0]},{"header":{"parameterUnit":"m.s-1","parameterCategory":1,"la1":30.2992,"la2":30.254,"lo1":-89.0895,"lo2":-89.0443,"dy":0.0025,"dx":0.0025,"nx":19,"ny":19,"refTime":"2026-04-12T09:00:00:Z","depth":0,"parameterNumber":3,"parameterNumberName":"V-component_of_WINDS"},"data":[0,0,0,4.399,4.3991,4.4051,4.4051,4.4158,4.4159,0,0,0,0,0,0,0,0,0,0,0,4.3989,4.399,4.399,4.3992,4.4051,4.4051,4.4158,4.4159,0,0,0,0,0,0,0,0,0,0,0,4.3988,4.399,4.3992,4.3992,4.4051,4.4051,4.4157,4.4102,0,0,0,0,0,0,0,0,0,0,4.4039,4.4054,4.399,4.3992,4.3992,4.4051,4.4051,4.4099,4.4105,4.4143,0,4.418,0,4.4172,4.4168,4.4168,0,0,0,4.3979,4.4049,4.405,4.3992,4.3993,4.4051,4.4021,4.4102,4.411,4.4152,4.4182,4.4185,4.4173,4.4169,4.417,4.4429,4.443,0,0,4.3976,4.4009,4.4045,4.4055,4.4047,4.4019,4.4023,4.4106,4.4141,4.4182,4.4187,4.4175,4.417,4.4171,4.4427,4.4429,0,0,0,4.3975,4.4008,4.4005,4.4052,4.406,4.4021,4.4025,4.4137,4.4134,4.4188,4.4176,4.4171,4.4172,4.4425,4.4428,4.4549,0,0,0,4.3972,4.4007,4.4005,4.4026,4.4059,4.4099,4.4055,4.4128,4.4136,4.4176,4.4171,4.4173,4.4423,4.4426,4.4541,4.4601,0,0,0,4.3979,4.4007,4.4022,4.4027,4.4054,4.4097,4.4098,4.4129,4.413,4.4169,4.4174,4.4421,4.4426,4.4534,4.4589,4.4679,0,0,0,4.3997,4.4128,4.4024,4.4167,4.4054,4.4171,4.4097,4.4183,4.423,4.4171,4.4423,4.4427,4.4532,4.4582,4.4672,4.4761,4.4801,0,0,4.4181,4.4152,4.4233,4.4141,4.4286,4.4159,4.4322,4.4334,4.4308,4.439,4.4396,4.4544,4.4589,4.4678,4.5013,4.5045,0,0,0,4.4303,4.4362,4.4392,4.4439,4.4452,4.4468,4.4451,4.4456,4.4524,4.4357,4.4599,4.4625,4.4676,4.4717,4.4744,4.4787,4.4448,4.4447,4.4447,4.4611,4.457,4.4702,4.4669,4.4716,4.4699,4.4733,4.4737,4.4681,4.474,4.4764,4.4973,4.5022,4.5042,4.5087,4.4807,4.4808,4.4808,4.4809,4.4878,4.4955,4.488,4.4981,4.4938,4.5023,4.5012,4.4971,4.5045,4.495,4.4993,4.4895,4.5079,4.5115,4.4817,4.4816,4.4815,4.4814,4.4813,4.5076,4.5106,4.5109,4.5173,4.5228,4.519,4.5265,4.5223,4.5184,4.5226,4.5248,4.5246,4.5239,4.524,4.524,4.5241,4.5242,4.5242,4.5243,4.5279,4.5279,4.5347,4.5373,4.5398,4.5426,4.5411,4.5435,4.5452,4.5415,4.5415,4.5356,4.5104,4.5042,4.5254,4.5252,4.525,4.5249,4.5249,4.5566,4.5494,4.5599,4.5624,4.5652,4.571,4.5655,4.5709,4.5723,4.5761,4.5693,4.5513,4.548,4.5458,4.5407,4.57,4.57,4.57,4.5701,4.5733,4.5712,4.581,4.5854,4.5892,4.5854,4.5976,4.5967,4.5946,4.5953,4.5904,4.5832,4.5812,4.5791,4.5761,4.5713,4.6078,4.6078,4.6078,4.5907,4.5888,4.5999,4.5977,4.5996,4.6014,4.6127,4.6182,4.6144,4.6093,4.5957,4.5942,4.5825,4.5788,4.5734,4.569,4.5599,0,0]}]]